• In Belarus
  • List of Countries
  • For 7 days
  • Water Temperature
  • Satellite Maps
  • Weather Map
  • Weather Widgets
  • user-avatar
    Login

    Hourly Weather Garmisch-Partenkirchen

    Today, 19 November, Monday

    Time Temperature Precipitation Wind Pressure Humidity
    00:00 -1°C° 0.1 mm 1 mps 671 mmHg 88%
    01:00 -3°C° 0 mm 2 mps 671 mmHg 90%
    02:00 -3°C° 0.2 mm 2 mps 671 mmHg 90%
    03:00 -3°C° 0.2 mm 2 mps 670 mmHg 90%
    04:00 -3°C° 0.2 mm 2 mps 670 mmHg 90%
    05:00 -3°C° 0.3 mm 2 mps 670 mmHg 90%
    06:00 -4°C° 0.3 mm 2 mps 669 mmHg 90%
    07:00 -4°C° 0.3 mm 2 mps 669 mmHg 90%
    08:00 -3°C° 0.2 mm 2 mps 669 mmHg 86%
    09:00 -3°C° 0.2 mm 2 mps 668 mmHg 83%
    10:00 -3°C° 0.2 mm 2 mps 668 mmHg 80%
    11:00 -2°C° 0.1 mm 2 mps 668 mmHg 76%
    12:00 -1°C° 0.1 mm 3 mps 668 mmHg 72%
    13:00 -1°C° 0.1 mm 3 mps 667 mmHg 68%
    14:00 -1°C° 0 mm 3 mps 667 mmHg 71%
    15:00 -2°C° 0 mm 3 mps 667 mmHg 74%
    16:00 -2°C° 0 mm 2 mps 667 mmHg 77%
    17:00 -3°C° 0 mm 2 mps 666 mmHg 80%
    18:00 -3°C° 0 mm 2 mps 666 mmHg 83%
    19:00 -4°C° 0 mm 2 mps 666 mmHg 86%
    20:00 -4°C° 0 mm 2 mps 666 mmHg 85%
    21:00 -4°C° 0 mm 2 mps 666 mmHg 83%
    22:00 -5°C° 0 mm 2 mps 666 mmHg 81%
    23:00 -5°C° 0 mm 2 mps 666 mmHg 80%

    Tomorrow, 20 November, Tuesday

    Time Temperature Precipitation Wind Pressure Humidity
    00:00 -4°C° 0 mm 2 mps 665 mmHg 78%
    01:00 -4°C° 0 mm 2 mps 665 mmHg 77%
    02:00 -4°C° 0 mm 2 mps 665 mmHg 77%
    03:00 -4°C° 0 mm 2 mps 665 mmHg 76%
    04:00 -4°C° 0 mm 2 mps 664 mmHg 76%
    05:00 -4°C° 0 mm 2 mps 664 mmHg 77%
    06:00 -4°C° 0 mm 2 mps 664 mmHg 78%
    07:00 -4°C° 0 mm 2 mps 664 mmHg 78%
    08:00 0°C° 0 mm 1 mps 664 mmHg 72%
    09:00 +2°C° 0 mm 1 mps 665 mmHg 67%
    10:00 +3°C° 0 mm 1 mps 665 mmHg 61%
    11:00 +4°C° 0 mm 1 mps 665 mmHg 58%
    12:00 +5°C° 0 mm 1 mps 665 mmHg 55%
    13:00 +7°C° 0 mm 1 mps 666 mmHg 53%
    14:00 +5°C° 0 mm 1 mps 666 mmHg 60%
    15:00 +4°C° 0 mm 1 mps 666 mmHg 67%
    16:00 +3°C° 0 mm 1 mps 666 mmHg 75%
    17:00 +2°C° 0 mm 1 mps 666 mmHg 77%
    18:00 -1°C° 0 mm 2 mps 666 mmHg 78%
    19:00 -2°C° 0 mm 2 mps 667 mmHg 80%
    20:00 -2°C° 0 mm 2 mps 667 mmHg 79%
    21:00 -2°C° 0 mm 2 mps 668 mmHg 77%
    22:00 -2°C° 0 mm 2 mps 668 mmHg 75%
    23:00 -2°C° 0 mm 2 mps 668 mmHg 74%

    Day after tomorrow, 21 November, Wednesday

    Time Temperature Precipitation Wind Pressure Humidity
    00:00 -2°C° 0 mm 2 mps 669 mmHg 73%
    01:00 -2°C° 0 mm 2 mps 669 mmHg 72%
    02:00 -2°C° 0 mm 2 mps 669 mmHg 72%
    03:00 -2°C° 0 mm 2 mps 669 mmHg 71%
    04:00 0°C° 0 mm 1 mps 669 mmHg 70%
    05:00 -2°C° 0 mm 2 mps 669 mmHg 70%
    06:00 -2°C° 0 mm 2 mps 669 mmHg 70%
    07:00 -2°C° 0 mm 2 mps 669 mmHg 70%
    08:00 +1°C° 0 mm 2 mps 670 mmHg 66%
    09:00 +3°C° 0 mm 2 mps 670 mmHg 61%
    10:00 +4°C° 0 mm 2 mps 671 mmHg 57%
    11:00 +6°C° 0 mm 2 mps 671 mmHg 56%
    12:00 +7°C° 0 mm 2 mps 671 mmHg 55%
    13:00 +8°C° 0 mm 2 mps 671 mmHg 55%
    14:00 +7°C° 0 mm 1 mps 671 mmHg 63%
    15:00 +5°C° 0 mm 1 mps 671 mmHg 71%
    16:00 +4°C° 0 mm 1 mps 670 mmHg 79%
    17:00 +3°C° 0 mm 1 mps 671 mmHg 80%
    18:00 +2°C° 0 mm 1 mps 671 mmHg 81%
    19:00 +1°C° 0 mm 1 mps 672 mmHg 82%
    20:00 +1°C° 0 mm 1 mps 672 mmHg 82%
    21:00 +1°C° 0 mm 1 mps 672 mmHg 82%
    22:00 +1°C° 0 mm 1 mps 673 mmHg 82%
    23:00 +1°C° 0 mm 1 mps 673 mmHg 82%

    22 November, Thursday

    Time Temperature Precipitation Wind Pressure Humidity
    00:00 +1°C° 0 mm 1 mps 673 mmHg 83%
    01:00 +1°C° 0 mm 1 mps 673 mmHg 83%
    02:00 +1°C° 0 mm 1 mps 674 mmHg 83%
    03:00 +1°C° 0 mm 1 mps 674 mmHg 83%
    04:00 +1°C° 0 mm 1 mps 674 mmHg 83%
    05:00 +1°C° 0 mm 1 mps 674 mmHg 83%
    06:00 +1°C° 0 mm 1 mps 674 mmHg 84%
    07:00 +1°C° 0 mm 1 mps 674 mmHg 84%
    08:00 +2°C° 0 mm 1 mps 675 mmHg 79%
    09:00 +3°C° 0 mm 0 mps 676 mmHg 75%
    10:00 +4°C° 0 mm 0 mps 676 mmHg 70%
    11:00 +5°C° 0 mm 0 mps 676 mmHg 68%
    12:00 +7°C° 0 mm 1 mps 676 mmHg 67%
    13:00 +8°C° 0 mm 1 mps 676 mmHg 65%
    14:00 +7°C° 0.1 mm 1 mps 676 mmHg 72%
    15:00 +6°C° 0.1 mm 1 mps 676 mmHg 79%
    16:00 +4°C° 0.1 mm 0 mps 676 mmHg 86%
    17:00 +4°C° 0 mm 1 mps 677 mmHg 88%
    18:00 +3°C° 0 mm 1 mps 677 mmHg 89%
    19:00 +2°C° 0 mm 1 mps 677 mmHg 91%
    20:00 +2°C° 0 mm 1 mps 678 mmHg 90%
    21:00 +2°C° 0 mm 1 mps 678 mmHg 89%
    22:00 +2°C° 0 mm 1 mps 678 mmHg 89%
    23:00 +2°C° 0 mm 1 mps 678 mmHg 87%

    23 November, Friday

    Time Temperature Precipitation Wind Pressure Humidity
    00:00 +2°C° 0 mm 1 mps 678 mmHg 86%
    01:00 +1°C° 0 mm 1 mps 679 mmHg 84%
    02:00 +1°C° 0 mm 1 mps 679 mmHg 83%
    03:00 +1°C° 0 mm 1 mps 679 mmHg 82%
    04:00 +1°C° 0 mm 1 mps 679 mmHg 81%
    05:00 +1°C° 0 mm 1 mps 679 mmHg 79%
    06:00 +1°C° 0 mm 1 mps 679 mmHg 78%
    07:00 +1°C° 0 mm 1 mps 679 mmHg 77%
    08:00 +3°C° 0 mm 1 mps 680 mmHg 71%
    09:00 +4°C° 0 mm 1 mps 680 mmHg 66%
    10:00 +6°C° 0 mm 1 mps 680 mmHg 61%
    11:00 +7°C° 0 mm 1 mps 680 mmHg 58%
    12:00 +9°C° 0 mm 1 mps 680 mmHg 55%
    13:00 +10°C° 0 mm 1 mps 680 mmHg 53%
    14:00 +8°C° 0 mm 1 mps 680 mmHg 60%
    15:00 +7°C° 0 mm 1 mps 679 mmHg 67%
    16:00 +5°C° 0 mm 1 mps 679 mmHg 75%
    17:00 +3°C° 0 mm 2 mps 679 mmHg 76%
    18:00 +3°C° 0 mm 2 mps 679 mmHg 76%
    19:00 +2°C° 0 mm 2 mps 679 mmHg 77%
    20:00 +1°C° 0 mm 2 mps 679 mmHg 76%
    21:00 +1°C° 0 mm 2 mps 679 mmHg 75%
    22:00 +1°C° 0 mm 2 mps 679 mmHg 73%
    23:00 +1°C° 0 mm 2 mps 678 mmHg 72%

    24 November, Saturday

    Time Temperature Precipitation Wind Pressure Humidity
    00:00 +1°C° 0 mm 2 mps 678 mmHg 71%
    01:00 +1°C° 0 mm 2 mps 678 mmHg 70%
    02:00 +2°C° 0 mm 2 mps 677 mmHg 70%
    03:00 +2°C° 0 mm 2 mps 677 mmHg 70%
    04:00 +2°C° 0 mm 2 mps 677 mmHg 70%
    05:00 +2°C° 0 mm 2 mps 676 mmHg 71%
    06:00 +3°C° 0 mm 2 mps 676 mmHg 71%
    07:00 +3°C° 0 mm 2 mps 676 mmHg 72%
    08:00 +4°C° 0 mm 2 mps 676 mmHg 70%
    09:00 +5°C° 0 mm 2 mps 676 mmHg 69%
    10:00 +6°C° 0 mm 2 mps 677 mmHg 68%
    11:00 +7°C° 0 mm 2 mps 676 mmHg 69%
    12:00 +7°C° 0 mm 2 mps 676 mmHg 70%
    13:00 +7°C° 0 mm 2 mps 676 mmHg 71%
    14:00 +7°C° 0.1 mm 2 mps 675 mmHg 74%
    15:00 +6°C° 0.1 mm 2 mps 675 mmHg 77%
    16:00 +6°C° 0.1 mm 2 mps 675 mmHg 80%
    17:00 +5°C° 0.1 mm 2 mps 675 mmHg 82%
    18:00 +5°C° 0.1 mm 2 mps 675 mmHg 84%
    19:00 +4°C° 0.1 mm 2 mps 676 mmHg 86%
    20:00 +4°C° 0 mm 2 mps 676 mmHg 87%
    21:00 +4°C° 0 mm 2 mps 676 mmHg 89%
    22:00 +4°C° 0 mm 1 mps 676 mmHg 91%
    23:00 +4°C° 0 mm 1 mps 676 mmHg 91%
    Show more